When you browse on this site, cookies collect data to enhance your experience and personalize the content and advertising you see.
Visit our Privacy Policy to learn more. By continuing to use the site, you agree to this use of cookies and data.
  • In Latvia
  • List of Countries
  • For 7 days
  • Water Temperature
  • Weather Map
  • Weather Widgets
  • user-avatar
    Login

    Hourly Weather Vevey

    Today, 18 September, Wednesday

    Time Temperature Precipitation Wind Pressure Humidity
    00:00 +16°C° 0 mm 2 mps 721 mmHg 90%
    01:00 +16°C° 0 mm 3 mps 721 mmHg 89%
    02:00 +16°C° 0 mm 3 mps 721 mmHg 88%
    03:00 +16°C° 0 mm 3 mps 720 mmHg 87%
    04:00 +16°C° 0 mm 3 mps 721 mmHg 87%
    05:00 +14°C° 0 mm 3 mps 721 mmHg 88%
    06:00 +14°C° 0 mm 3 mps 721 mmHg 88%
    07:00 +17°C° 0 mm 3 mps 721 mmHg 81%
    08:00 +19°C° 0 mm 3 mps 721 mmHg 74%
    09:00 +20°C° 0 mm 3 mps 721 mmHg 68%
    10:00 +21°C° 0 mm 3 mps 721 mmHg 66%
    11:00 +22°C° 0 mm 3 mps 721 mmHg 64%
    12:00 +22°C° 0 mm 4 mps 721 mmHg 62%
    13:00 +22°C° 0 mm 4 mps 721 mmHg 63%
    14:00 +22°C° 0 mm 4 mps 721 mmHg 64%
    15:00 +21°C° 0 mm 4 mps 721 mmHg 65%
    16:00 +20°C° 0 mm 4 mps 721 mmHg 72%
    17:00 +18°C° 0 mm 4 mps 721 mmHg 79%
    18:00 +16°C° 0 mm 3 mps 721 mmHg 86%
    19:00 +14°C° 0 mm 3 mps 721 mmHg 87%
    20:00 +14°C° 0 mm 3 mps 722 mmHg 88%
    21:00 +13°C° 0 mm 3 mps 722 mmHg 89%
    22:00 +13°C° 0 mm 3 mps 722 mmHg 89%
    23:00 +12°C° 0 mm 3 mps 722 mmHg 90%

    Tomorrow, 19 September, Thursday

    Time Temperature Precipitation Wind Pressure Humidity
    00:00 +13°C° 0 mm 2 mps 722 mmHg 90%
    01:00 +12°C° 0 mm 3 mps 722 mmHg 91%
    02:00 +11°C° 0 mm 3 mps 722 mmHg 91%
    03:00 +11°C° 0 mm 3 mps 722 mmHg 91%
    04:00 +11°C° 0 mm 3 mps 722 mmHg 92%
    05:00 +11°C° 0 mm 3 mps 722 mmHg 92%
    06:00 +11°C° 0 mm 3 mps 722 mmHg 92%
    07:00 +13°C° 0 mm 3 mps 723 mmHg 84%
    08:00 +16°C° 0 mm 3 mps 723 mmHg 77%
    09:00 +18°C° 0 mm 3 mps 723 mmHg 70%
    10:00 +19°C° 0 mm 3 mps 723 mmHg 66%
    11:00 +20°C° 0 mm 4 mps 723 mmHg 62%
    12:00 +21°C° 0 mm 4 mps 723 mmHg 57%
    13:00 +21°C° 0 mm 4 mps 723 mmHg 58%
    14:00 +21°C° 0 mm 4 mps 723 mmHg 58%
    15:00 +20°C° 0 mm 4 mps 723 mmHg 58%
    16:00 +18°C° 0 mm 4 mps 723 mmHg 67%
    17:00 +15°C° 0 mm 4 mps 723 mmHg 75%
    18:00 +13°C° 0 mm 3 mps 723 mmHg 83%
    19:00 +13°C° 0 mm 3 mps 723 mmHg 85%
    20:00 +12°C° 0 mm 3 mps 724 mmHg 87%
    21:00 +13°C° 0 mm 2 mps 724 mmHg 88%
    22:00 +13°C° 0 mm 2 mps 724 mmHg 89%
    23:00 +12°C° 0 mm 2 mps 724 mmHg 90%

    Day after tomorrow, 20 September, Friday

    Time Temperature Precipitation Wind Pressure Humidity
    00:00 +12°C° 0 mm 2 mps 724 mmHg 91%
    01:00 +12°C° 0 mm 2 mps 724 mmHg 92%
    02:00 +12°C° 0 mm 1 mps 724 mmHg 92%
    03:00 +11°C° 0 mm 1 mps 723 mmHg 93%
    04:00 +12°C° 0 mm 1 mps 723 mmHg 92%
    05:00 +12°C° 0 mm 1 mps 723 mmHg 92%
    06:00 +12°C° 0 mm 1 mps 723 mmHg 91%
    07:00 +15°C° 0 mm 1 mps 723 mmHg 82%
    08:00 +18°C° 0 mm 1 mps 724 mmHg 73%
    09:00 +21°C° 0 mm 1 mps 724 mmHg 64%
    10:00 +22°C° 0 mm 1 mps 723 mmHg 61%
    11:00 +23°C° 0 mm 2 mps 723 mmHg 58%
    12:00 +24°C° 0 mm 2 mps 723 mmHg 55%
    13:00 +24°C° 0 mm 2 mps 723 mmHg 56%
    14:00 +24°C° 0 mm 2 mps 722 mmHg 58%
    15:00 +24°C° 0 mm 2 mps 722 mmHg 60%
    16:00 +22°C° 0 mm 1 mps 722 mmHg 69%
    17:00 +19°C° 0 mm 1 mps 722 mmHg 79%
    18:00 +16°C° 0 mm 1 mps 722 mmHg 88%
    19:00 +16°C° 0 mm 1 mps 722 mmHg 88%
    20:00 +15°C° 0 mm 1 mps 722 mmHg 89%
    21:00 +15°C° 0 mm 1 mps 722 mmHg 89%
    22:00 +15°C° 0 mm 1 mps 722 mmHg 89%
    23:00 +15°C° 0 mm 1 mps 722 mmHg 90%

    21 September, Saturday

    Time Temperature Precipitation Wind Pressure Humidity
    00:00 +15°C° 0 mm 1 mps 722 mmHg 90%
    01:00 +15°C° 0 mm 1 mps 722 mmHg 89%
    02:00 +14°C° 0 mm 1 mps 722 mmHg 88%
    03:00 +14°C° 0 mm 1 mps 722 mmHg 88%
    04:00 +14°C° 0 mm 1 mps 721 mmHg 86%
    05:00 +15°C° 0 mm 1 mps 721 mmHg 85%
    06:00 +15°C° 0 mm 1 mps 721 mmHg 83%
    07:00 +18°C° 0 mm 1 mps 721 mmHg 75%
    08:00 +21°C° 0 mm 1 mps 722 mmHg 67%
    09:00 +24°C° 0 mm 1 mps 722 mmHg 58%
    10:00 +25°C° 0 mm 1 mps 721 mmHg 55%
    11:00 +26°C° 0 mm 1 mps 721 mmHg 52%
    12:00 +27°C° 0 mm 1 mps 720 mmHg 49%
    13:00 +27°C° 0.1 mm 1 mps 720 mmHg 53%
    14:00 +26°C° 0.1 mm 1 mps 720 mmHg 58%
    15:00 +26°C° 0.1 mm 1 mps 720 mmHg 62%
    16:00 +24°C° 0.5 mm 1 mps 720 mmHg 70%
    17:00 +22°C° 0.5 mm 1 mps 720 mmHg 78%
    18:00 +19°C° 0.5 mm 2 mps 720 mmHg 86%
    19:00 +18°C° 0.2 mm 2 mps 720 mmHg 87%
    20:00 +18°C° 0.2 mm 2 mps 720 mmHg 89%
    21:00 +17°C° 0.2 mm 2 mps 720 mmHg 90%
    22:00 +17°C° 0.1 mm 2 mps 720 mmHg 89%
    23:00 +18°C° 0.1 mm 1 mps 720 mmHg 89%

    22 September, Sunday

    Time Temperature Precipitation Wind Pressure Humidity
    00:00 +18°C° 0.1 mm 1 mps 719 mmHg 88%
    01:00 +16°C° 0 mm 1 mps 719 mmHg 88%
    02:00 +16°C° 0 mm 1 mps 719 mmHg 88%
    03:00 +16°C° 0 mm 1 mps 719 mmHg 88%
    04:00 +16°C° 0 mm 1 mps 719 mmHg 88%
    05:00 +16°C° 0 mm 1 mps 719 mmHg 88%
    06:00 +16°C° 0 mm 1 mps 718 mmHg 87%
    07:00 +19°C° 0 mm 1 mps 719 mmHg 81%
    08:00 +21°C° 0 mm 1 mps 719 mmHg 74%
    09:00 +23°C° 0 mm 1 mps 719 mmHg 67%
    10:00 +24°C° 0 mm 1 mps 719 mmHg 63%
    11:00 +25°C° 0 mm 1 mps 719 mmHg 60%
    12:00 +26°C° 0 mm 1 mps 718 mmHg 56%
    13:00 +25°C° 0.2 mm 1 mps 718 mmHg 60%
    14:00 +25°C° 0.2 mm 1 mps 718 mmHg 65%
    15:00 +24°C° 0.2 mm 1 mps 718 mmHg 69%
    16:00 +23°C° 0.5 mm 1 mps 718 mmHg 76%
    17:00 +21°C° 0.5 mm 1 mps 718 mmHg 83%
    18:00 +20°C° 0.5 mm 1 mps 718 mmHg 91%
    19:00 +19°C° 2.6 mm 1 mps 718 mmHg 92%
    20:00 +18°C° 2.6 mm 2 mps 719 mmHg 94%
    21:00 +18°C° 2.6 mm 2 mps 719 mmHg 96%
    22:00 +17°C° 4.2 mm 2 mps 720 mmHg 96%
    23:00 +16°C° 4.2 mm 2 mps 720 mmHg 97%

    23 September, Monday

    Time Temperature Precipitation Wind Pressure Humidity
    00:00 +16°C° 4.2 mm 2 mps 720 mmHg 97%
    01:00 +15°C° 1.3 mm 1 mps 720 mmHg 96%
    02:00 +15°C° 1.3 mm 1 mps 720 mmHg 96%
    03:00 +15°C° 1.3 mm 1 mps 721 mmHg 95%
    04:00 +15°C° 0.1 mm 1 mps 720 mmHg 95%
    05:00 +14°C° 0.1 mm 1 mps 720 mmHg 95%
    06:00 +13°C° 0.1 mm 0 mps 720 mmHg 95%
    07:00 +15°C° 0.2 mm 1 mps 721 mmHg 93%
    08:00 +16°C° 0.2 mm 1 mps 721 mmHg 91%
    09:00 +18°C° 0.2 mm 1 mps 721 mmHg 89%
    10:00 +18°C° 0.3 mm 1 mps 721 mmHg 85%
    11:00 +19°C° 0.3 mm 1 mps 721 mmHg 82%
    12:00 +20°C° 0.3 mm 1 mps 721 mmHg 78%
    13:00 +20°C° 0.2 mm 1 mps 721 mmHg 77%
    14:00 +20°C° 0.2 mm 1 mps 721 mmHg 77%
    15:00 +19°C° 0.2 mm 1 mps 721 mmHg 76%
    16:00 +18°C° 0.1 mm 1 mps 721 mmHg 81%
    17:00 +15°C° 0.1 mm 1 mps 721 mmHg 85%
    18:00 +14°C° 0.1 mm 1 mps 721 mmHg 90%
    19:00 +13°C° 0 mm 1 mps 721 mmHg 91%
    20:00 +13°C° 0 mm 1 mps 722 mmHg 91%
    21:00 +13°C° 0 mm 1 mps 722 mmHg 92%
    22:00 +13°C° 0 mm 1 mps 722 mmHg 92%
    23:00 +12°C° 0 mm 0 mps 722 mmHg 92%
    Show more